GFSSW_850_thetae_090.txt.gz
Theta_e
314 316 316 312 310 309 310 310 309 309 309 309 309 310 311 313 312 309 310 310 309 311 311 314 314 314 314 316 317 317 321 322 321 318 318 315 318 314 315 317 318 321 319 322 325
315 315 316 311 310 309 309 309 309 308 309 309 309 309 309 309 309 309 310 310 310 310 311 315 314 314 316 316 316 320 321 322 319 318 319 316 318 316 317 317 317 318 318 320 324
315 315 315 311 309 309 308 308 308 308 308 309 309 309 309 309 309 309 309 310 310 310 314 314 313 315 316 316 315 316 320 317 315 314 315 317 316 315 317 318 318 318 318 318 325
315 314 315 311 309 308 308 308 308 308 308 308 309 309 308 309 310 310 310 310 310 311 314 313 314 315 316 318 314 317 313 314 313 313 313 316 314 315 316 317 315 316 317 317 321
314 313 315 311 309 308 308 308 308 308 308 308 308 308 308 308 309 313 310 310 312 314 314 312 314 314 316 315 314 316 314 313 313 312 313 313 314 316 315 315 315 315 315 316 325
315 313 313 311 308 307 307 308 308 308 308 308 307 307 308 310 310 310 311 312 313 313 313 312 314 313 313 315 315 313 313 313 312 312 312 314 313 312 313 312 312 313 314 315 320
315 314 309 310 308 307 307 307 307 307 307 307 307 307 309 309 310 311 313 313 312 312 312 313 313 313 312 313 310 311 314 313 313 312 313 312 314 314 312 311 310 312 313 314 315
314 314 307 309 307 307 307 307 307 307 307 307 307 307 308 309 310 312 314 313 311 311 312 312 313 312 312 311 310 312 314 315 311 312 312 312 317 310 310 310 311 311 312 313 314
314 313 311 308 307 307 307 307 307 307 307 307 307 308 308 309 310 311 313 313 311 311 312 312 312 311 311 314 314 312 314 313 310 310 312 312 315 310 310 312 313 312 312 312 312
314 312 307 307 307 307 307 307 307 307 308 308 308 309 308 310 310 310 311 311 311 311 312 312 312 313 313 314 314 314 312 311 312 311 312 313 314 313 311 311 314 313 313 313 313
314 312 307 307 307 307 307 309 309 309 308 309 309 308 307 310 311 310 311 311 311 312 313 310 313 314 314 313 311 313 311 312 310 311 313 313 314 314 313 312 313 314 312 311 312
313 312 310 308 307 307 308 310 309 308 308 307 308 308 308 311 311 310 311 312 312 311 310 312 313 312 310 309 310 310 312 312 311 310 312 312 314 314 312 311 309 309 310 309 310
313 311 309 307 307 309 310 308 308 308 309 308 308 309 310 311 311 310 311 310 311 311 311 312 311 308 309 309 310 310 312 311 312 310 309 309 313 311 309 308 308 307 307 309 310
311 309 309 309 311 311 311 309 308 309 310 310 308 309 310 310 310 311 310 310 308 311 310 310 307 309 310 310 311 311 310 311 311 313 312 309 312 313 309 310 309 310 311 311 310
310 310 310 311 312 312 309 310 309 312 312 310 308 308 310 309 310 311 310 310 310 309 310 311 308 309 310 311 310 311 309 310 311 313 312 312 312 313 308 311 312 311 311 310 310
311 310 311 313 315 309 308 313 312 313 313 313 308 309 309 309 310 310 311 310 308 310 309 310 307 309 310 307 309 307 310 309 309 311 313 312 313 313 311 311 312 310 310 309 309
310 314 313 313 316 312 310 313 317 316 311 314 309 309 310 310 311 311 311 311 311 311 311 311 310 309 308 310 308 309 312 313 313 314 313 306 309 313 308 308 313 311 310 309 309
306 309 312 313 316 316 314 316 315 311 311 311 310 309 310 310 310 310 311 311 309 309 311 311 311 310 309 311 311 311 312 314 317 313 312 306 311 312 308 307 310 310 309 308 309
304 306 311 312 315 316 315 315 313 311 312 311 309 309 309 310 310 311 312 312 311 309 311 311 310 308 308 307 311 310 311 309 308 302 313 311 310 308 308 309 309 309 309 309 309
304 303 305 309 313 315 315 313 312 313 312 311 312 310 310 310 311 311 311 311 311 308 307 310 311 308 308 308 308 310 309 311 310 316 315 309 310 313 310 311 311 310 310 308 309
304 303 302 304 309 308 313 313 313 313 312 313 313 311 309 309 310 310 311 308 310 308 307 308 312 310 309 311 312 308 309 309 310 311 320 313 311 311 312 313 311 311 310 309 309
302 303 304 303 304 300 307 311 312 314 314 314 312 312 310 309 310 311 310 309 307 307 309 308 311 313 311 307 306 308 310 310 312 311 308 310 313 306 311 312 311 310 308 308 310
300 300 304 303 307 306 302 309 312 315 315 314 315 313 310 310 311 310 310 309 306 308 309 309 312 314 311 310 307 309 308 310 309 310 313 315 312 306 310 309 310 309 307 309 309
298 302 301 302 303 303 305 307 312 311 314 312 313 312 312 312 312 310 311 311 308 307 309 308 310 312 312 311 312 311 309 308 310 313 312 311 312 309 310 311 309 308 309 308 309
298 298 298 305 304 303 304 305 307 309 309 309 310 313 313 313 313 313 312 311 309 309 309 309 313 310 311 310 310 312 311 309 310 311 312 312 310 310 311 311 309 309 309 307 308
298 298 297 298 299 303 304 306 306 305 306 308 309 310 311 313 313 313 312 312 313 310 310 309 312 311 311 310 311 312 311 310 310 311 311 310 310 310 310 310 308 308 308 307 307
297 298 297 298 300 304 305 304 305 304 305 305 307 307 307 308 308 308 308 308 308 310 311 311 311 312 313 310 313 313 313 311 311 311 311 311 311 308 309 308 308 309 308 308 308

GFSSW_850_thetae_093.txt.gz
Theta_e
314 314 315 317 318 317 314 310 310 310 312 314 315 317 318 325 312 310 310 313 311 310 311 311 315 315 315 317 317 318 323 325 323 322 320 320 320 317 317 319 321 322 322 327 333
315 314 315 316 317 317 314 310 310 310 310 310 310 309 310 310 309 311 312 312 311 310 311 312 315 314 316 317 318 320 323 323 322 321 320 320 320 318 318 318 319 321 321 332 333
315 314 315 316 316 313 311 310 310 309 309 309 309 310 309 309 311 310 312 312 310 310 310 314 315 315 316 317 318 320 323 322 320 318 319 320 319 318 319 319 319 319 321 331 333
315 314 315 315 316 314 310 309 309 309 308 309 309 309 309 309 310 310 310 310 309 310 312 314 314 316 317 318 318 319 317 319 316 315 317 319 318 318 318 318 317 318 320 328 331
316 315 314 315 316 313 309 309 308 308 308 309 309 309 308 311 312 312 310 309 310 310 313 314 314 315 317 317 317 319 316 316 315 314 316 316 317 318 317 317 315 315 319 325 329
316 315 314 315 315 314 308 308 308 308 308 308 308 308 310 311 310 310 311 309 311 312 313 314 314 315 315 317 318 317 317 316 315 315 314 317 316 315 316 315 315 314 317 322 326
315 315 314 315 315 312 308 308 308 308 308 308 307 307 312 311 309 310 312 310 312 313 313 313 313 314 315 316 313 316 317 316 315 315 315 315 316 316 314 312 313 313 316 318 323
316 315 314 314 314 309 308 308 308 308 307 307 307 308 310 310 309 311 313 313 313 312 313 312 313 313 315 313 314 316 317 317 315 315 314 315 319 318 313 313 314 314 314 316 318
315 315 314 313 314 308 308 308 307 307 307 307 307 311 309 308 310 311 314 313 312 311 312 312 312 314 312 315 315 315 317 317 314 313 315 315 317 314 312 314 314 314 313 314 314
315 315 314 312 312 308 308 307 307 307 307 307 309 311 309 311 310 311 313 312 311 311 312 312 314 314 315 315 317 316 316 315 316 313 313 315 316 315 313 314 315 315 315 315 314
315 315 314 311 309 308 307 309 311 312 310 309 310 309 309 310 311 310 311 311 312 312 314 314 314 314 315 315 316 317 315 315 314 313 314 315 315 315 315 314 315 316 316 315 314
315 315 313 312 309 307 308 310 309 310 310 308 308 308 309 311 311 310 311 312 312 313 314 313 314 315 315 314 314 315 314 314 313 313 314 315 315 315 315 315 314 314 313 313 312
315 314 313 312 308 308 314 311 310 309 310 309 308 310 310 311 311 311 311 312 312 313 314 314 314 312 311 311 313 314 314 314 314 313 312 313 314 315 312 311 310 310 309 311 312
314 313 312 310 310 311 313 311 308 309 311 310 309 309 310 310 312 311 311 312 312 312 312 313 309 311 312 312 313 312 312 313 314 314 313 313 313 315 313 313 312 312 313 313 312
314 313 311 309 311 312 311 310 308 311 312 311 309 309 311 310 310 310 310 310 312 312 311 311 310 311 312 312 312 313 312 313 314 314 314 313 312 314 311 313 314 314 314 313 313
312 311 309 311 313 311 310 311 310 313 313 312 309 310 311 310 311 310 310 310 310 311 311 311 308 311 312 310 311 311 312 312 313 313 312 312 313 314 313 313 314 313 313 312 312
312 310 310 311 314 310 310 313 316 317 311 314 310 310 311 310 311 312 311 311 311 311 311 312 310 310 309 310 310 312 312 313 312 314 312 309 313 313 311 312 314 313 313 312 312
309 311 312 312 313 311 312 315 316 311 311 313 310 310 311 311 311 312 312 311 312 311 312 311 311 311 310 312 311 312 312 315 319 316 314 307 312 313 310 310 314 313 312 312 312
305 309 311 311 314 310 313 314 314 311 312 313 310 311 311 310 311 312 312 312 312 312 312 311 312 310 310 310 312 312 312 312 311 307 315 312 312 311 310 311 313 312 311 312 312
303 304 307 310 313 314 314 314 311 313 313 311 311 310 310 311 311 312 312 312 312 311 311 312 312 310 308 310 309 311 311 311 312 319 317 313 313 313 311 311 312 311 312 312 312
302 301 303 306 310 312 314 314 312 313 312 312 312 310 310 310 311 311 312 312 312 311 309 311 313 310 310 311 312 310 311 311 311 314 324 317 312 312 313 312 313 312 312 312 311
302 304 302 304 305 303 312 313 311 314 314 313 313 311 310 311 310 311 312 311 311 310 310 310 313 313 311 309 308 311 312 311 312 313 311 314 316 309 312 312 313 312 312 311 311
301 302 302 302 307 306 304 310 312 313 315 314 315 313 310 310 310 311 311 309 308 309 310 310 314 315 312 311 309 310 311 312 312 315 318 317 313 308 310 313 313 313 311 311 310
300 303 302 302 300 303 305 308 312 312 314 314 315 314 311 311 311 311 311 311 309 308 309 309 313 312 312 312 312 311 311 310 312 313 313 313 313 310 312 313 313 312 310 310 309
299 300 300 305 304 304 304 304 308 312 313 314 314 315 313 314 312 312 312 312 310 309 309 310 313 311 311 312 312 313 312 312 311 312 312 312 312 312 312 313 312 311 310 310 309
299 299 298 300 301 303 304 307 306 305 306 312 314 314 315 315 314 314 313 312 312 311 310 310 315 312 314 312 311 312 312 312 311 311 311 311 312 313 311 311 312 311 311 310 309
297 297 299 299 302 304 304 305 306 305 304 302 309 311 312 313 311 312 312 312 313 312 311 312 313 315 316 312 313 314 312 312 312 311 312 312 312 311 312 312 312 311 310 309 309

GFSSW_850_thetae_096.txt.gz
Theta_e
315 314 315 315 318 318 320 320 319 320 322 319 322 324 322 321 320 315 312 312 318 323 315 326 325 315 316 317 318 319 323 324 324 323 320 320 319 319 318 319 322 321 328 328 333
315 314 315 316 317 317 319 319 319 315 317 325 322 322 326 326 323 317 314 311 312 324 313 313 316 315 316 317 317 319 322 324 323 321 319 320 319 318 317 319 320 320 331 333 333
316 314 314 315 317 317 317 318 318 312 312 316 318 313 317 313 311 321 316 312 311 311 311 311 321 315 316 317 318 318 322 322 319 318 320 320 319 318 318 317 318 320 328 332 333
316 315 314 315 316 316 316 318 316 311 310 310 310 310 310 312 316 315 320 311 311 310 310 313 315 315 317 318 317 319 319 319 317 317 319 319 318 318 318 317 319 319 319 330 333
316 315 314 315 315 315 316 317 314 310 309 309 309 310 309 310 314 312 310 310 309 309 311 312 315 316 317 317 317 318 316 316 316 316 318 318 318 318 318 317 317 319 321 329 331
316 315 315 314 315 315 316 316 310 309 309 309 310 310 309 311 310 312 311 309 309 310 310 314 314 316 315 317 317 317 316 315 315 315 315 317 316 315 317 317 316 315 320 326 329
315 316 315 314 315 316 315 315 309 309 309 309 309 309 310 312 311 310 312 309 310 310 311 314 314 315 315 317 316 316 315 315 315 315 314 315 315 314 315 315 314 314 316 321 325
314 315 315 314 315 315 316 311 309 309 309 308 308 308 311 310 311 310 312 310 312 312 314 314 314 314 314 314 314 315 316 316 315 315 313 315 318 315 313 313 313 314 315 317 320
316 315 315 314 315 315 315 309 309 308 308 307 307 311 310 309 310 310 313 311 312 313 313 313 313 314 313 313 314 314 315 316 313 314 313 313 317 311 313 313 314 314 314 315 316
316 315 315 314 314 314 312 309 308 307 307 307 311 310 310 309 309 310 313 312 311 311 311 312 314 314 312 312 314 315 314 315 313 312 313 313 314 312 312 314 315 314 314 314 313
316 315 315 314 313 314 310 309 310 313 311 309 309 310 310 311 311 310 313 311 311 312 313 313 313 313 312 312 313 315 314 314 314 313 313 313 314 313 313 313 314 315 315 315 315
316 315 315 314 313 312 309 310 310 310 311 310 308 310 310 311 311 310 312 312 312 312 314 313 313 313 313 313 313 314 314 314 312 312 313 313 312 312 313 313 314 314 315 315 314
316 315 315 314 313 311 308 310 309 310 309 310 309 310 309 311 311 311 311 312 312 312 313 313 313 313 312 312 313 313 314 312 314 312 312 312 312 313 312 313 313 313 313 312 312
314 315 315 313 313 310 310 312 310 310 310 309 309 309 310 311 312 311 311 312 311 312 313 313 311 312 311 311 312 312 312 313 312 312 311 311 307 312 309 309 310 311 310 311 311
314 315 314 313 311 311 309 313 310 312 315 310 309 310 310 311 310 311 311 311 311 312 312 311 309 311 312 312 312 313 312 313 314 313 313 311 309 311 309 310 310 312 313 313 313
314 314 313 312 311 310 311 312 309 315 316 310 308 311 311 311 311 310 310 310 311 311 311 310 309 311 311 310 311 310 311 312 312 311 310 310 308 309 308 309 311 313 314 313 313
311 313 313 311 313 310 313 312 313 314 311 312 309 311 310 311 311 310 310 310 310 310 311 310 309 309 310 309 310 311 310 310 310 310 310 306 310 310 310 312 312 312 313 312 312
312 313 311 310 313 311 313 312 312 310 311 311 310 310 310 310 311 311 310 310 309 309 310 310 311 309 309 310 310 310 309 312 312 314 311 306 309 309 308 311 314 313 312 312 312
311 311 310 311 313 311 312 311 310 311 311 311 310 310 311 310 311 311 310 310 310 309 310 310 312 309 309 310 310 310 310 311 308 303 311 308 309 309 308 310 312 312 312 312 312
307 309 309 311 312 311 312 310 310 312 312 310 311 310 310 310 311 311 310 310 310 310 310 311 311 310 308 309 309 309 308 309 310 307 310 310 310 309 309 309 310 310 311 312 312
303 303 303 309 311 310 312 310 310 313 312 311 310 310 311 310 310 311 311 311 310 310 309 311 312 310 309 309 310 308 309 310 309 312 313 311 308 309 309 309 311 310 311 312 312
301 303 302 305 307 308 309 311 311 313 313 312 313 310 310 310 310 310 310 311 311 310 309 310 311 311 310 308 308 308 310 309 310 310 308 312 310 309 309 308 311 311 311 312 312
301 301 300 303 307 306 307 310 311 314 314 314 314 312 311 310 310 310 310 309 309 309 309 309 312 311 311 310 309 309 309 310 309 310 310 309 308 307 308 309 311 311 312 312 311
302 304 300 300 300 303 308 310 311 312 313 314 314 312 310 310 310 309 312 311 308 309 309 310 313 311 310 310 309 310 310 309 310 310 309 309 309 309 309 309 311 311 311 311 311
300 301 301 304 303 303 303 306 310 311 312 314 315 314 312 312 309 311 311 311 310 309 309 310 311 310 309 309 310 310 310 310 309 310 309 310 309 308 308 309 311 311 311 311 310
300 299 299 300 301 304 303 306 308 310 310 314 315 314 312 313 310 312 311 311 311 310 309 309 310 309 308 309 310 310 310 310 310 309 310 309 308 308 310 312 312 311 310 310 310
297 298 300 301 303 302 303 305 305 305 303 302 309 313 314 314 311 311 312 311 311 309 309 309 309 310 310 310 309 309 309 310 310 309 309 309 310 309 308 310 311 311 310 310 310

GFSSW_850_thetae_099.txt.gz
Theta_e
316 315 314 316 317 318 322 323 324 320 321 317 316 317 319 315 314 315 312 313 319 315 327 320 320 321 315 316 317 319 318 321 322 318 318 319 317 318 319 321 320 326 327 327 334
317 315 313 315 316 318 320 323 322 322 321 319 318 322 324 317 316 318 315 312 317 317 324 324 324 320 315 316 317 316 318 321 318 316 316 318 318 317 318 320 322 330 328 331 333
317 315 314 315 315 318 319 321 321 319 320 321 320 322 323 324 323 322 317 313 312 319 323 325 325 325 315 315 317 316 317 319 318 319 320 317 317 317 317 316 320 332 333 333 332
317 315 315 314 316 317 318 320 318 318 318 318 321 321 321 321 323 323 324 314 311 311 313 323 326 322 315 315 317 317 318 318 317 317 319 317 317 316 317 317 318 318 323 331 333
317 315 314 314 315 317 317 318 318 317 313 313 314 312 312 313 320 313 320 318 312 310 313 312 322 324 315 315 316 316 315 316 316 318 318 318 316 316 316 317 318 319 323 324 331
317 316 315 314 315 316 316 317 317 317 311 311 310 310 310 310 312 313 312 324 314 310 311 313 315 320 315 315 314 316 315 315 315 315 316 315 315 316 316 315 320 321 322 324 327
317 316 315 314 314 315 315 316 316 314 311 309 310 310 309 309 311 310 310 312 311 310 311 313 314 314 315 314 316 315 313 313 314 314 314 315 314 314 316 316 316 323 323 324 328
316 316 315 314 315 315 315 316 314 309 311 310 310 309 309 309 311 310 312 311 310 310 312 313 314 314 314 314 314 314 312 313 313 314 313 314 315 313 315 315 315 314 318 325 327
316 316 315 314 314 315 316 316 310 309 310 309 309 309 309 310 310 310 312 311 318 312 313 314 314 314 313 310 311 312 312 313 313 313 312 313 314 312 312 313 313 313 314 317 321
316 314 315 314 315 315 316 313 310 309 308 308 309 310 310 309 309 310 312 312 312 312 312 313 313 311 309 308 311 311 313 313 311 311 312 311 313 309 313 313 313 313 314 315 315
316 314 315 314 314 315 314 310 310 310 311 309 310 308 309 310 309 310 312 311 311 312 310 312 311 312 310 309 311 312 312 312 310 311 312 310 310 309 311 312 313 312 313 314 314
315 315 315 314 313 315 311 309 309 309 311 309 310 310 311 311 310 311 311 311 311 310 310 311 311 311 311 310 311 311 311 311 311 311 311 310 311 310 309 311 313 314 313 314 313
317 316 315 313 313 314 310 309 310 309 308 308 310 309 310 310 311 310 311 311 310 310 310 311 312 311 311 310 311 310 311 309 311 311 311 311 309 312 311 312 312 313 313 313 314
315 315 315 314 313 314 310 310 309 309 307 309 308 310 309 311 311 310 311 311 310 310 310 311 311 311 310 310 310 311 311 310 311 309 308 307 306 307 308 308 309 311 312 312 312
313 314 315 314 313 313 308 312 311 310 311 308 308 310 309 311 310 310 311 311 309 310 310 311 310 310 310 311 310 311 311 311 310 311 308 310 306 305 306 309 308 309 311 310 311
316 313 315 313 313 311 309 313 311 313 313 309 308 311 311 310 310 309 310 310 311 309 308 309 309 310 310 309 310 309 310 309 308 307 308 307 305 305 307 308 307 309 311 312 312
315 315 314 313 311 310 313 313 310 313 310 309 308 311 309 310 310 308 309 308 308 309 310 308 309 308 309 309 309 309 308 308 308 309 308 306 307 306 308 307 308 309 312 313 312
314 314 313 312 311 310 313 310 310 309 309 308 308 309 308 309 309 308 308 308 307 308 309 309 309 308 308 309 309 307 308 308 308 310 308 305 308 308 308 310 311 312 313 313 312
314 314 312 312 309 309 312 310 308 309 309 309 309 309 307 309 309 308 308 309 308 306 309 309 310 308 308 309 309 308 309 308 307 297 307 306 305 307 308 310 310 311 312 311 311
309 311 311 312 310 310 311 309 308 309 309 308 309 308 307 308 309 307 308 308 308 307 308 308 310 309 308 309 308 308 307 309 307 309 307 307 307 306 307 306 308 309 310 311 311
308 307 306 310 310 309 311 309 308 312 310 309 308 308 307 308 307 308 308 308 308 308 308 310 310 309 308 308 308 308 307 308 309 307 307 306 306 304 307 307 309 309 311 311 311
300 302 303 309 309 308 309 308 309 311 312 312 308 308 308 307 308 308 308 308 309 308 308 309 309 310 308 308 307 308 308 308 308 308 308 308 308 307 306 305 310 309 311 311 311
300 300 302 305 307 306 307 309 309 313 313 313 312 310 308 308 308 308 307 308 308 308 308 309 309 309 310 309 308 309 308 308 308 306 307 306 306 306 306 305 309 309 310 311 311
300 303 300 301 300 306 307 308 309 312 312 313 312 310 309 308 309 308 309 309 308 309 309 310 311 310 310 309 308 309 308 307 308 308 308 307 307 308 307 306 308 309 310 311 311
300 300 301 302 302 303 307 307 308 311 311 312 314 311 309 309 309 309 311 309 308 308 308 310 308 309 308 308 309 309 309 308 308 309 308 309 308 306 306 307 309 309 310 311 311
299 299 300 299 300 303 304 306 308 307 310 312 313 312 311 309 308 309 310 309 308 308 307 308 308 308 308 307 309 309 308 309 309 309 309 309 308 306 308 309 310 310 310 310 310
298 299 301 302 301 302 303 305 307 308 304 304 307 311 313 312 310 309 310 309 309 308 308 308 308 307 312 308 308 310 309 308 308 309 308 308 309 306 306 308 309 309 310 311 311

GFSSW_850_thetae_102.txt.gz
Theta_e
316 314 314 314 317 320 323 325 324 324 324 322 315 315 314 312 312 316 318 316 319 325 324 325 317 318 315 316 317 318 316 318 321 315 317 318 316 317 319 320 321 326 325 326 335
317 315 315 314 317 319 321 323 324 323 321 322 317 318 315 313 313 311 313 317 315 323 326 321 317 318 315 315 316 315 316 319 318 315 315 317 317 318 320 321 329 327 326 331 334
317 316 315 315 316 318 319 323 323 322 322 321 316 320 322 320 315 315 315 316 320 315 324 323 319 319 318 315 315 315 316 318 318 317 318 317 316 315 318 316 327 328 329 333 333
318 316 315 314 316 317 318 321 323 322 321 320 316 319 323 325 321 319 316 318 314 313 323 325 324 324 320 317 315 315 316 316 317 318 317 315 316 315 316 316 319 322 325 332 333
318 316 314 314 315 316 318 319 322 321 320 320 321 317 321 320 321 313 319 315 314 316 316 326 325 323 321 317 315 314 315 315 316 317 317 316 315 315 316 317 320 327 330 330 332
317 316 315 314 315 316 318 319 320 319 318 318 321 320 319 317 319 318 318 321 314 311 312 318 325 323 322 317 316 315 315 314 315 315 315 314 314 316 316 318 324 327 330 330 329
317 316 314 314 315 316 317 318 319 318 318 315 314 318 314 318 311 317 311 319 319 312 312 315 324 325 322 317 319 315 314 313 313 314 314 315 314 312 316 318 323 326 326 326 328
317 317 315 314 314 316 316 317 318 317 315 313 311 311 310 311 311 316 311 319 320 312 310 313 320 324 315 314 313 312 311 312 312 313 313 313 313 313 314 319 324 326 326 326 327
315 317 315 314 314 316 316 316 317 315 312 310 313 310 309 309 309 311 311 312 317 315 310 312 313 316 315 311 312 311 312 312 313 312 311 312 313 312 313 315 322 324 325 326 327
316 317 315 314 314 315 315 316 315 312 311 311 311 310 310 310 309 309 311 312 310 311 311 311 313 311 309 309 314 311 311 311 311 311 310 311 311 310 311 312 313 314 316 322 326
315 316 315 314 314 315 315 314 312 313 310 309 309 310 309 309 309 310 312 312 314 311 311 311 311 313 312 308 310 310 311 312 311 310 311 309 311 308 311 311 310 311 312 314 318
312 316 315 314 314 315 315 312 311 310 311 309 310 310 310 310 310 311 311 311 311 311 310 311 312 311 311 310 311 310 310 310 310 310 310 309 310 309 308 309 311 312 312 313 315
311 316 315 314 314 315 314 310 309 309 307 309 310 308 310 310 310 311 311 311 310 309 309 311 311 310 310 310 310 309 309 308 311 310 310 309 309 310 309 310 311 311 312 313 314
310 316 315 313 315 315 313 309 309 308 307 308 309 309 310 311 310 311 311 311 309 310 309 310 310 310 310 311 310 309 308 309 309 308 308 307 308 304 308 308 308 311 312 312 313
311 316 315 312 314 315 313 309 308 310 309 307 307 309 309 310 309 310 311 310 308 308 309 311 309 309 311 311 309 310 309 310 309 307 308 308 305 304 306 307 307 309 311 312 313
312 315 315 314 314 314 310 310 311 312 312 308 308 310 310 310 309 309 310 310 310 308 308 309 308 309 310 309 309 308 308 307 306 306 308 306 306 305 305 307 308 308 310 311 311
313 315 315 314 313 313 312 312 310 310 308 307 308 310 309 308 309 307 309 308 308 309 310 308 308 308 309 309 309 309 309 308 307 309 309 305 304 307 305 305 306 307 309 310 310
310 315 315 313 312 311 312 309 310 308 308 306 308 309 309 308 309 307 308 309 306 308 307 309 309 308 307 309 309 307 308 307 307 308 306 305 307 308 305 307 308 309 311 311 311
310 314 314 313 312 311 311 310 309 309 309 308 309 309 308 309 308 307 307 310 308 305 309 308 309 308 307 308 309 309 308 306 307 297 307 306 304 305 306 307 309 309 310 311 312
309 313 311 312 310 310 310 309 307 308 308 308 309 308 308 309 308 306 307 309 308 306 307 307 309 308 308 308 308 308 307 310 307 308 309 307 306 305 307 306 307 307 309 311 311
304 306 306 311 309 311 311 309 308 309 308 308 308 307 307 308 307 306 307 307 307 306 306 308 309 309 308 308 308 307 307 307 307 308 309 306 306 303 306 307 307 307 309 311 311
302 302 305 309 309 309 310 308 308 311 309 310 307 308 307 307 307 307 306 307 309 307 307 309 308 309 308 308 307 307 307 307 310 308 306 307 307 305 304 305 307 309 310 311 311
300 299 302 309 308 309 308 309 308 311 311 310 308 308 306 308 309 307 306 307 307 307 308 308 309 308 310 308 307 308 307 307 306 306 309 308 307 303 305 306 306 309 310 311 311
300 302 300 302 302 307 309 309 309 311 312 312 310 308 307 308 308 308 307 308 308 308 308 309 309 309 310 309 308 309 308 306 307 307 306 307 307 306 306 306 306 308 310 310 311
300 300 299 302 303 307 308 308 308 311 311 312 312 309 308 308 308 308 309 308 307 309 308 309 307 308 308 307 308 308 309 308 307 309 308 309 306 306 304 305 307 308 309 310 310
298 300 300 300 300 307 308 308 308 307 310 311 311 310 310 308 309 307 309 307 307 308 307 306 305 307 306 307 308 309 307 308 308 308 307 307 306 305 307 307 308 309 309 310 310
298 300 300 300 301 303 305 306 308 307 304 306 309 311 311 311 309 309 309 308 307 307 307 308 306 306 310 307 309 309 308 307 308 308 308 308 309 304 305 305 308 309 309 310 311

GFSSW_850_thetae_108.txt.gz
Theta_e
317 317 318 317 316 315 316 318 321 324 323 323 323 323 317 315 313 315 315 318 319 319 325 329 331 326 318 316 316 317 317 317 319 313 317 316 315 317 319 324 325 324 326 329 335
317 317 318 318 316 314 315 318 321 325 323 323 322 320 316 314 311 312 317 321 318 318 326 327 326 327 319 316 315 315 316 317 316 312 314 315 316 316 319 323 324 326 327 328 334
316 318 318 318 316 315 315 318 321 324 323 324 321 314 312 311 311 311 315 318 317 321 323 322 324 320 322 319 315 313 316 315 317 315 315 315 314 318 318 321 323 324 324 331 334
313 319 317 317 316 315 316 319 321 326 324 325 322 314 312 311 317 315 314 315 319 325 322 320 320 320 320 319 317 315 314 313 313 314 314 313 315 314 319 319 320 321 322 328 333
316 318 317 316 316 315 316 319 322 322 323 323 320 315 313 313 315 313 314 316 319 322 324 321 320 320 321 319 319 315 313 316 315 313 314 314 313 313 317 316 317 321 324 326 331
312 318 316 316 315 315 316 319 323 324 324 323 318 316 318 315 315 314 314 319 322 324 325 323 321 322 322 320 320 317 317 318 318 313 314 312 312 314 316 316 319 322 323 327 329
313 318 317 316 315 315 317 321 322 321 323 323 317 319 321 317 316 316 315 316 318 320 324 324 323 322 321 321 320 319 320 319 317 313 313 313 313 312 314 315 322 324 323 327 330
310 314 317 316 315 315 318 321 323 322 321 320 316 320 320 318 318 318 315 316 316 314 320 324 323 322 320 319 319 321 316 321 319 311 313 312 313 312 314 315 325 326 326 328 329
309 312 317 316 315 315 317 319 321 322 322 321 317 318 317 317 317 316 315 316 315 314 313 315 318 321 318 319 321 319 325 320 320 311 310 311 312 311 313 316 323 326 327 327 328
309 310 314 316 315 316 317 318 320 321 321 318 315 315 314 312 319 312 315 316 316 311 312 314 313 319 316 321 327 321 322 314 321 311 309 310 310 309 310 316 320 325 326 327 328
307 311 312 316 315 316 317 319 320 317 316 313 314 311 311 312 315 312 315 318 316 312 312 311 313 319 318 315 313 316 317 318 310 310 310 309 310 310 309 309 315 322 325 326 326
306 308 310 315 315 316 317 319 319 314 311 310 313 309 310 312 312 311 314 318 317 313 310 311 312 312 315 315 315 311 311 314 311 309 308 309 309 307 306 308 311 315 320 323 322
306 306 310 315 315 316 318 317 316 314 311 309 311 309 309 310 310 311 316 314 317 315 312 313 311 311 312 311 313 314 312 310 312 309 308 309 309 308 307 308 309 311 314 317 319
306 305 308 315 316 317 317 315 315 314 309 309 310 309 309 309 309 310 313 314 309 315 313 311 310 310 310 310 310 313 310 309 310 314 315 308 312 308 306 307 305 310 311 313 314
305 306 307 312 316 316 315 314 313 310 314 308 308 309 309 308 309 309 311 310 306 308 308 310 310 309 311 311 311 312 308 309 309 309 307 308 307 308 305 306 306 307 311 313 314
305 308 306 312 316 316 314 311 309 309 310 308 308 308 309 308 308 309 310 309 310 308 307 308 308 308 309 310 310 309 311 308 306 307 310 310 308 308 305 306 306 309 312 313 314
304 306 306 309 316 314 312 309 310 313 306 307 307 308 308 307 307 309 308 305 308 308 309 307 306 306 310 310 310 310 313 314 311 309 312 302 305 310 307 303 305 308 313 315 314
303 305 308 305 315 312 310 309 305 307 306 305 307 308 308 307 307 307 308 307 305 306 308 310 310 305 305 309 310 311 313 313 313 311 310 304 307 307 305 307 308 308 309 310 311
302 304 308 306 312 311 308 310 309 307 305 307 307 309 306 307 307 307 309 309 306 303 308 309 309 306 305 306 308 306 312 310 307 299 306 306 305 304 304 305 305 306 308 310 311
303 306 310 308 310 310 309 310 306 305 306 308 307 307 308 308 307 307 309 308 308 304 304 306 308 306 306 306 307 307 307 309 307 310 308 306 305 307 307 306 307 305 308 312 311
303 307 309 309 309 309 311 310 306 306 308 306 306 306 306 308 306 307 309 307 308 304 304 304 306 307 306 306 305 305 307 307 308 308 310 307 308 302 306 306 307 307 306 307 309
303 304 307 309 310 307 310 306 307 305 307 305 305 304 306 307 304 308 306 307 309 306 305 304 305 306 306 306 305 305 306 308 310 309 304 307 310 303 303 303 304 306 307 308 309
302 301 304 308 307 307 310 308 307 306 306 306 306 305 304 306 307 305 304 305 307 307 306 305 306 302 307 307 306 306 305 306 306 306 309 309 311 303 304 305 306 306 308 308 309
300 300 301 302 300 305 310 309 308 308 307 306 305 305 305 306 305 305 304 305 307 308 307 308 307 307 308 308 306 308 306 305 306 307 308 307 309 308 306 305 306 308 309 308 309
299 299 299 304 302 304 309 308 306 310 308 307 306 306 306 306 306 305 305 306 305 307 307 308 310 307 306 306 307 308 308 306 307 309 309 310 308 307 306 306 306 308 309 309 309
299 299 299 300 300 304 309 309 308 307 309 308 305 304 305 305 307 305 306 306 306 306 306 305 304 306 305 306 306 307 308 307 308 308 308 309 308 307 307 307 307 308 308 309 310
299 298 300 300 301 304 307 309 308 307 306 307 305 305 306 305 306 307 307 307 306 307 307 306 303 302 304 305 306 306 307 307 307 307 309 308 309 304 304 303 306 309 308 309 310

GFSSW_850_thetae_111.txt.gz
Theta_e
310 310 312 320 319 319 316 316 318 320 324 323 321 324 323 319 315 316 318 323 322 321 324 330 333 318 322 317 316 317 317 318 318 314 318 316 315 317 319 324 327 328 325 329 334
309 309 312 318 318 319 316 316 318 319 322 324 322 323 321 314 314 315 319 320 322 319 324 330 332 329 322 318 316 315 318 318 316 312 314 314 316 317 320 324 323 324 325 331 334
310 310 312 314 319 318 316 316 318 319 322 323 323 322 319 313 312 313 317 321 317 318 325 325 329 329 322 318 315 314 318 313 312 314 314 314 314 317 318 321 323 323 325 331 333
312 311 314 318 319 318 316 315 317 319 321 323 323 319 314 312 317 317 318 317 318 319 324 322 323 325 321 320 317 316 313 313 315 313 313 313 314 315 319 319 320 321 323 328 332
312 312 313 312 319 318 316 315 316 318 322 323 323 314 312 311 314 315 313 317 318 323 322 321 320 320 321 319 318 316 313 316 317 315 313 313 313 314 317 318 318 321 323 326 331
310 311 313 313 319 318 316 315 316 318 323 322 321 314 312 312 314 314 312 314 319 323 323 322 321 321 319 319 319 318 317 318 318 318 313 312 311 313 315 318 316 320 322 324 328
310 311 313 317 319 318 316 315 316 318 321 323 317 314 312 314 315 314 313 314 317 320 324 323 322 324 321 321 320 319 320 319 319 313 312 312 312 311 314 316 317 320 323 325 327
310 310 311 319 318 318 316 315 317 319 324 324 316 315 317 315 316 313 316 321 323 324 325 324 324 323 321 320 320 321 319 323 319 312 311 312 315 312 313 315 318 321 324 326 327
309 311 310 316 318 317 316 315 318 321 323 321 318 317 318 317 316 314 315 317 318 322 324 324 323 320 319 321 323 321 325 320 322 314 312 311 314 311 312 315 319 321 324 324 326
309 309 309 311 316 316 315 315 319 320 322 319 319 318 314 316 315 314 315 316 313 318 318 318 319 319 318 323 330 323 324 319 323 313 309 310 311 310 310 315 317 321 324 324 323
307 307 307 309 317 316 315 317 322 319 319 316 317 315 318 316 314 315 315 314 314 313 312 312 316 324 320 321 319 321 323 323 311 317 311 309 310 311 311 309 315 319 322 324 324
305 305 307 311 316 315 316 320 321 314 311 314 317 312 315 316 315 315 316 315 312 312 310 311 313 317 318 316 314 316 317 318 317 309 308 308 309 309 307 309 310 314 319 321 323
304 304 307 309 315 315 316 320 319 315 311 309 311 310 311 315 315 314 317 316 313 312 312 313 313 312 316 316 317 314 312 311 311 309 308 308 311 309 307 308 310 311 313 316 320
303 303 308 308 315 316 318 319 317 315 313 310 312 309 310 313 310 314 317 317 315 313 312 311 311 311 313 316 318 319 311 312 310 312 315 309 313 310 308 307 305 311 311 313 315
302 303 308 307 313 317 317 318 315 315 317 308 310 309 310 313 309 311 315 312 312 313 312 314 312 310 311 313 312 311 307 307 310 310 308 307 309 307 305 306 306 308 312 314 314
303 304 307 306 306 317 317 315 313 315 317 309 308 309 307 308 308 310 311 310 312 308 310 310 308 309 309 309 310 309 312 312 307 307 311 310 310 308 310 306 308 308 312 315 315
304 304 304 306 308 316 316 311 312 319 307 308 308 309 307 306 307 310 308 306 310 310 310 308 306 307 310 310 309 311 314 316 316 314 314 303 308 313 308 304 306 309 313 315 316
303 303 304 305 307 312 313 312 317 310 309 305 308 309 308 307 306 307 309 309 305 307 309 312 312 306 307 310 311 313 314 312 313 311 310 303 308 309 306 310 308 310 310 310 312
302 303 304 303 306 308 311 315 314 310 305 307 308 309 306 307 307 307 308 309 306 304 310 309 310 304 306 306 311 310 315 308 306 297 306 306 306 305 303 304 306 307 309 312 312
302 303 303 303 305 307 312 313 306 304 306 308 311 308 308 308 306 307 309 308 307 303 305 306 308 305 305 306 307 310 309 314 309 306 307 307 305 310 306 306 306 306 309 311 310
303 305 306 306 303 306 311 313 306 305 307 306 305 306 307 307 306 308 309 307 307 303 304 304 306 307 305 305 306 305 310 307 310 307 308 307 308 303 307 306 307 306 308 310 310
303 304 305 305 303 301 309 306 306 306 306 304 304 304 307 307 306 308 308 308 308 305 304 304 305 306 305 305 303 305 307 308 310 307 304 306 308 305 303 305 306 307 310 309 309
302 302 304 305 306 306 309 307 306 305 305 305 304 305 305 307 308 307 305 306 308 306 306 304 306 304 308 306 305 304 303 308 306 304 307 307 310 305 302 304 306 307 308 309 309
300 302 301 304 300 305 308 309 307 306 305 304 303 304 305 306 305 305 305 304 307 307 307 308 306 307 309 308 306 307 304 304 307 306 309 307 309 306 307 305 305 307 309 310 310
299 298 300 302 301 303 308 308 306 307 306 305 305 306 306 306 306 305 304 304 304 307 306 306 307 305 305 305 306 306 305 304 306 308 308 310 309 307 306 306 308 309 308 309 310
299 299 298 299 301 304 304 308 308 305 306 305 305 305 304 305 307 303 305 304 305 305 305 304 303 305 305 304 305 307 306 306 307 308 307 309 308 306 308 308 306 308 308 309 309
299 299 300 300 301 305 306 306 308 307 306 305 304 305 304 304 305 306 307 306 305 307 306 306 304 300 308 304 304 304 305 306 306 307 308 308 309 305 305 303 306 308 309 310 310

GFSSW_850_thetae_114.txt.gz
Theta_e
310 312 312 311 312 314 321 321 320 319 319 320 325 324 323 324 324 321 323 326 326 324 326 331 331 323 320 319 317 318 324 325 324 321 322 321 321 319 320 326 328 328 329 332 334
308 312 311 310 312 314 321 320 320 319 318 321 325 323 323 322 322 321 323 325 324 323 325 331 331 319 320 319 315 319 325 325 320 318 319 321 322 319 323 326 326 328 325 332 334
305 309 311 310 313 313 319 320 319 317 318 322 324 322 323 318 316 317 323 322 322 322 323 328 332 322 322 318 318 316 327 320 315 316 315 317 317 320 322 325 324 326 327 333 334
310 309 310 309 311 312 316 320 319 317 318 322 323 323 320 313 319 319 321 322 319 322 322 328 329 326 323 321 319 321 314 314 316 312 314 316 316 318 321 322 321 324 323 331 333
309 311 310 311 310 312 313 320 318 317 318 321 323 323 314 313 316 317 319 320 318 318 324 325 325 324 325 321 318 320 317 315 317 316 314 313 315 319 319 317 318 322 323 327 333
308 312 313 314 312 312 319 319 317 316 317 320 323 321 315 316 316 316 315 317 319 320 323 323 322 324 322 321 321 319 316 318 317 317 313 315 314 314 318 318 317 321 323 324 329
309 311 311 311 313 313 316 319 317 316 317 320 323 318 314 317 316 315 313 316 319 322 321 321 322 324 322 320 320 319 320 319 317 314 312 312 315 315 315 318 322 325 328 327 330
310 309 310 310 311 312 314 319 317 316 317 320 322 314 313 315 315 314 312 315 318 323 323 322 322 323 322 321 322 324 323 324 317 314 311 314 322 317 314 319 321 324 328 329 329
309 310 310 311 312 314 317 318 316 315 317 319 315 314 316 315 316 313 313 314 317 320 322 324 323 321 321 325 326 324 328 327 326 314 313 314 319 313 312 318 320 324 326 329 329
305 308 310 310 312 315 319 318 316 316 317 320 315 316 312 315 316 314 319 321 322 323 322 321 321 323 324 329 332 326 329 325 328 319 313 319 318 318 312 315 318 321 325 326 328
306 307 309 311 311 317 319 317 317 319 320 318 317 318 315 315 316 315 318 320 322 319 316 314 323 329 327 327 324 324 328 328 321 322 319 319 322 322 320 312 315 318 322 325 325
306 306 306 308 309 315 319 317 316 318 318 317 318 315 315 316 316 315 314 315 316 316 313 316 322 323 324 322 324 326 328 328 324 313 314 319 320 320 318 314 313 315 318 322 324
304 305 304 308 307 313 318 316 318 318 315 314 315 312 314 316 316 315 314 314 315 314 315 320 317 318 321 317 320 321 327 322 321 312 312 315 322 319 316 315 313 311 313 317 322
302 303 303 306 307 311 317 317 318 316 314 309 311 311 314 315 315 315 314 314 313 315 314 316 311 317 319 317 317 317 313 313 314 315 323 318 329 324 320 319 312 312 312 313 314
301 300 304 308 307 316 316 318 317 316 320 307 309 309 314 316 312 313 316 315 316 314 314 316 313 317 318 319 319 316 315 316 314 314 313 314 317 322 315 317 318 312 312 312 314
299 301 304 307 306 312 317 316 315 318 319 306 308 309 313 311 313 311 312 315 313 314 315 314 311 314 317 314 311 311 314 314 311 312 320 319 316 322 319 316 316 316 314 315 315
302 301 304 306 306 307 313 315 314 321 307 307 307 309 311 313 312 314 312 312 314 315 317 312 312 309 311 314 312 313 317 319 319 317 322 308 314 319 317 314 315 316 315 316 316
303 302 302 305 307 308 312 314 319 311 311 308 308 309 312 312 314 315 312 315 312 314 314 316 314 310 310 314 315 315 318 319 322 321 320 305 314 317 312 315 312 310 312 312 313
302 303 302 303 306 305 301 314 316 312 309 310 309 310 310 308 313 312 314 314 313 311 318 317 312 307 310 311 313 314 317 311 311 305 311 313 312 311 312 309 309 309 308 310 312
302 302 303 303 303 302 303 314 308 310 311 311 312 311 312 311 313 315 314 314 312 309 310 313 310 307 307 311 311 314 314 315 315 318 316 314 311 314 313 312 311 309 309 310 311
303 303 304 302 302 300 309 311 306 308 311 313 311 311 311 311 313 315 314 311 310 308 307 309 310 307 308 312 313 313 315 314 316 313 318 317 317 311 311 312 312 311 309 310 310
303 304 303 303 302 301 308 308 307 310 311 307 311 310 311 310 311 312 313 310 309 308 310 308 308 310 311 306 308 312 314 314 317 316 313 311 316 309 309 309 308 309 309 310 310
302 301 304 302 306 307 306 308 308 309 309 309 309 309 310 310 311 311 310 309 309 309 311 308 310 312 309 308 306 311 310 314 312 310 316 318 318 312 306 307 307 307 309 310 310
301 303 302 304 300 304 306 308 308 308 306 306 308 309 310 310 308 310 309 306 309 310 308 308 308 312 312 311 310 309 311 312 314 314 315 314 315 313 312 312 309 307 308 308 310
300 300 301 304 303 305 306 306 308 308 306 307 307 310 311 311 310 309 307 306 308 308 308 310 312 309 308 308 309 310 309 310 312 313 313 313 312 312 312 312 312 310 309 309 311
299 300 299 301 302 306 304 306 308 308 308 308 309 310 310 310 310 309 309 309 309 307 309 306 312 309 307 306 309 309 310 310 310 311 311 311 312 312 311 311 311 310 309 309 310
299 300 300 301 303 305 306 305 309 308 308 307 308 309 308 309 309 307 308 307 308 309 309 308 310 310 312 307 309 311 309 310 309 310 311 311 311 311 311 310 309 309 309 309 310

GFSSW_850_thetae_117.txt.gz
Theta_e
306 306 310 311 309 309 311 312 322 323 323 322 320 319 324 325 324 325 324 325 325 326 327 328 330 327 321 319 321 322 327 329 328 328 327 324 325 324 324 327 328 330 329 334 333
305 307 308 309 311 309 310 310 314 320 322 322 320 319 325 324 325 325 324 323 324 326 326 328 327 319 318 318 319 327 329 329 326 325 324 324 324 323 324 327 327 329 331 335 333
305 307 307 308 311 310 310 310 312 320 321 321 321 319 325 324 323 322 323 322 324 326 325 327 330 324 325 322 318 322 330 327 320 320 318 322 324 323 324 327 325 328 333 332 333
305 306 306 306 311 310 310 310 311 317 322 320 320 320 324 323 324 320 320 322 323 322 323 327 330 324 326 327 321 323 318 319 318 315 316 319 322 322 323 323 323 324 331 329 336
306 306 307 309 307 310 311 312 312 316 321 320 320 321 323 319 321 318 319 321 322 321 322 326 328 325 328 327 323 325 321 315 317 317 316 316 318 322 322 322 319 325 331 328 335
303 305 307 310 309 310 311 312 312 314 320 319 319 323 321 319 320 318 319 321 321 320 322 326 328 327 328 323 326 324 321 322 318 316 314 317 319 317 320 321 321 327 331 333 332
303 305 308 310 310 310 311 313 312 312 319 319 319 323 318 319 318 317 317 318 319 319 322 325 324 326 324 321 321 321 320 320 319 315 313 314 318 317 319 320 322 326 329 332 333
304 308 308 310 312 313 312 313 313 316 319 319 320 318 318 319 317 317 319 320 320 320 322 322 322 323 324 322 323 323 322 322 320 318 314 315 326 321 319 320 321 324 326 330 332
310 310 308 309 311 312 312 312 311 319 318 319 320 316 316 317 318 318 319 322 319 320 321 321 322 322 322 326 328 327 329 326 325 317 315 318 324 320 315 318 321 323 325 328 330
308 308 309 309 310 311 311 311 314 320 318 319 319 315 313 315 319 317 319 321 321 321 322 322 323 323 325 329 336 329 331 331 330 323 319 322 324 323 317 316 319 320 323 325 329
306 305 305 307 310 311 311 312 314 321 319 319 316 316 316 317 317 317 317 320 320 321 322 317 324 327 329 329 330 330 331 332 329 321 323 325 325 325 324 318 318 318 320 323 325
307 306 305 307 309 311 313 315 315 318 319 318 316 317 317 318 317 318 319 319 320 321 316 318 324 326 327 329 329 330 331 332 328 318 322 327 328 325 325 325 322 319 318 319 323
305 306 306 305 305 309 311 314 318 318 318 316 316 316 317 317 317 319 321 321 322 315 319 325 326 323 328 329 329 329 331 331 330 324 318 321 325 324 324 323 323 321 318 317 319
304 303 304 304 305 308 310 317 316 317 318 315 315 315 316 317 317 318 320 318 320 319 318 321 318 324 325 327 328 326 318 324 317 320 329 321 331 330 328 327 324 322 321 319 316
304 303 301 302 306 308 310 317 316 316 321 311 310 313 316 317 316 316 316 316 318 319 318 318 319 325 324 323 325 320 315 316 315 316 316 320 321 325 324 324 325 324 320 321 317
302 303 302 301 305 307 312 316 317 318 322 308 309 311 315 316 317 314 313 315 316 317 316 316 318 323 323 319 316 315 315 313 313 313 320 322 321 325 325 322 321 322 322 320 318
300 301 301 302 306 307 306 316 316 321 306 306 308 311 316 315 316 315 313 314 315 318 317 315 316 314 318 315 312 314 320 323 323 321 326 313 324 323 323 322 320 320 320 320 319
301 301 301 302 305 303 302 313 319 313 312 308 309 311 312 316 315 316 315 316 317 319 320 319 317 314 317 319 316 316 322 325 328 326 324 309 319 320 316 312 315 316 315 316 317
302 302 302 303 305 303 301 311 317 312 310 311 311 313 310 316 316 316 317 318 317 318 320 320 317 313 314 315 316 316 320 318 314 309 315 318 316 316 315 315 312 314 313 312 312
302 302 302 303 305 302 303 311 312 313 311 311 315 314 313 311 317 317 317 318 318 317 317 319 313 313 311 314 315 318 316 318 318 325 322 321 317 317 317 316 315 313 314 313 312
302 303 302 303 303 300 308 310 308 312 311 315 315 314 313 315 317 317 318 318 317 314 313 318 313 311 311 314 316 314 317 317 319 319 323 323 321 315 313 312 314 314 312 311 311
302 304 301 302 303 302 308 306 307 312 312 315 314 315 315 317 317 318 318 318 316 313 313 312 312 312 313 308 312 315 317 317 320 320 319 317 319 312 312 311 311 311 311 311 310
302 301 303 303 305 306 305 306 308 313 314 314 314 314 315 317 319 319 318 315 314 312 314 310 312 315 312 312 309 314 314 316 316 314 321 320 320 315 313 312 311 310 311 311 310
302 305 300 301 302 305 306 307 309 312 313 313 313 313 314 315 315 317 316 313 312 312 311 310 311 313 315 313 312 311 313 314 316 317 318 318 318 316 313 313 312 311 310 310 310
301 303 302 304 304 306 303 307 310 311 308 311 311 312 313 313 312 312 310 308 312 312 310 311 313 312 312 311 311 311 312 313 316 316 316 316 316 316 316 316 314 313 312 312 310
301 301 300 302 303 305 304 307 309 308 309 311 312 312 312 312 313 312 310 311 311 311 310 311 315 311 311 309 311 312 312 313 313 315 315 315 314 314 313 313 312 312 312 311 311
299 300 302 303 304 306 306 306 308 309 308 310 312 313 313 312 310 310 310 310 310 311 311 311 314 315 317 310 310 312 311 312 313 313 314 315 314 313 312 312 311 311 311 311 310

GFSSW_850_thetae_120.txt.gz
Theta_e
308 305 309 310 310 309 309 311 316 316 320 323 324 323 321 322 326 326 324 322 322 325 325 328 328 330 330 331 321 322 327 328 328 329 328 324 325 325 325 327 328 328 331 334 332
307 307 306 306 310 310 309 309 314 316 317 322 324 322 321 320 325 326 325 323 319 325 325 327 328 328 319 326 326 320 329 329 327 325 323 324 324 324 324 327 329 330 335 334 333
307 307 304 304 307 309 310 309 310 314 317 316 324 324 322 320 324 324 324 323 321 323 325 327 328 329 319 320 320 322 330 328 322 319 318 323 324 324 324 325 327 330 336 333 336
307 306 305 305 305 307 308 310 309 310 317 314 322 324 322 321 325 323 323 322 322 325 324 326 328 324 326 324 325 327 325 318 318 317 317 319 323 323 324 323 323 327 328 332 336
307 306 306 305 306 306 307 310 311 308 316 313 314 323 322 322 321 319 321 322 321 322 323 325 330 327 327 325 325 326 322 317 317 317 316 317 318 322 322 323 322 327 329 328 337
305 305 305 306 306 305 306 311 311 310 313 312 315 321 322 321 321 320 318 321 322 323 323 325 330 326 326 327 325 326 324 316 317 316 315 316 318 318 320 321 321 327 328 325 332
305 303 303 305 305 307 307 308 310 311 311 312 314 320 322 321 320 320 317 319 322 322 322 325 328 328 327 324 323 326 324 322 320 318 314 314 317 316 319 320 321 329 330 329 330
301 301 301 303 305 307 310 308 309 310 312 312 314 323 321 321 320 321 318 319 320 320 321 323 326 328 324 322 322 323 322 324 321 315 315 315 327 321 320 320 321 324 330 331 332
299 300 301 303 306 307 311 310 310 312 312 312 313 318 320 319 319 319 318 320 320 319 321 323 324 323 322 323 326 323 326 322 322 319 314 313 323 322 318 318 320 322 326 329 331
302 303 305 307 308 309 311 311 312 312 312 312 312 318 316 319 318 318 319 320 320 321 322 322 322 323 324 326 333 328 329 323 325 318 317 316 318 316 316 317 318 320 323 327 329
305 308 309 309 309 308 309 312 313 313 313 313 320 319 316 318 318 319 320 321 321 321 323 321 325 327 326 325 329 327 329 329 327 321 320 319 320 320 321 316 317 318 319 324 327
305 306 308 306 307 308 308 312 309 313 312 311 317 318 317 318 319 319 321 322 322 322 317 319 325 325 325 325 328 330 330 332 325 321 323 325 324 322 323 324 322 318 318 318 323
305 306 305 305 306 307 310 310 311 312 315 318 317 318 317 319 318 319 321 320 321 321 321 325 325 324 327 328 330 331 331 331 328 318 317 319 323 322 322 325 324 324 321 319 318
307 307 306 306 305 306 306 309 312 313 313 316 317 317 317 318 318 318 320 319 318 320 321 323 323 326 327 330 329 331 323 324 319 322 327 321 328 327 325 323 322 324 324 320 317
305 304 305 305 304 305 307 309 312 313 318 315 316 316 318 318 318 319 319 319 321 319 319 321 321 327 329 329 328 324 317 315 315 315 319 317 319 321 322 325 323 323 323 321 319
304 304 303 303 303 303 306 309 312 315 319 311 311 315 319 317 319 319 319 316 319 319 316 316 320 324 325 318 318 313 315 315 313 317 322 322 319 321 322 321 322 323 323 322 322
304 304 303 304 304 305 306 307 315 318 306 306 313 317 318 318 319 319 316 316 318 318 319 317 322 315 317 317 316 316 321 322 324 322 325 316 320 322 321 319 318 318 319 321 323
302 301 301 302 302 304 303 302 312 313 311 308 315 316 318 316 315 317 316 318 316 317 317 318 318 318 317 318 317 317 322 321 324 322 321 309 318 318 316 315 315 314 318 316 315
299 300 301 301 302 304 301 307 311 312 309 312 315 317 313 316 313 317 318 317 316 317 320 320 317 313 318 315 316 317 322 315 312 305 313 314 314 314 313 313 313 312 314 313 313
301 301 302 302 301 300 302 307 308 309 310 313 318 317 315 315 316 317 318 316 317 316 316 317 315 313 316 316 315 318 316 320 317 316 316 317 317 316 313 312 312 311 312 314 313
302 302 302 302 302 301 304 307 306 306 311 315 316 317 316 313 317 317 317 316 316 316 316 315 313 312 313 316 316 315 317 317 318 318 319 319 318 312 313 311 312 311 312 312 311
302 302 302 302 301 301 305 307 305 308 311 315 315 316 315 314 317 318 318 317 316 316 317 313 312 313 313 310 314 314 317 317 320 319 317 316 315 309 309 309 310 310 311 311 310
302 301 302 302 302 302 305 306 306 307 312 315 315 315 314 317 318 317 317 317 316 316 314 311 312 314 314 312 309 314 315 317 315 312 315 316 316 309 310 310 310 310 311 310 310
301 302 300 301 302 303 305 306 308 306 312 315 315 314 316 317 316 317 316 316 316 315 312 311 312 312 315 314 311 313 315 315 316 313 314 315 317 315 310 310 310 311 310 310 310
301 302 301 303 302 303 303 305 309 309 309 314 315 315 316 318 317 318 316 316 314 312 310 311 310 312 312 312 311 313 315 314 317 316 316 316 315 314 311 310 311 312 312 312 311
301 301 300 301 302 303 304 305 307 305 309 314 315 316 317 316 316 317 316 316 314 310 310 310 309 310 308 310 311 312 313 314 314 315 315 314 313 313 314 315 312 312 311 311 311
300 301 303 303 302 303 304 304 307 308 309 311 313 316 317 315 312 313 315 313 313 313 312 311 311 310 311 308 308 308 310 312 313 312 314 315 313 312 311 310 311 311 311 311 311

GFSSW_850_thetae_123.txt.gz
Theta_e
305 309 309 311 312 309 308 309 309 316 319 321 324 323 324 323 323 325 325 325 325 324 322 323 327 329 329 330 332 321 323 326 326 327 325 324 323 324 326 327 328 328 333 333 332
308 306 307 308 311 310 308 308 309 309 317 315 321 323 324 323 323 324 323 325 324 323 322 323 327 328 328 329 328 324 325 325 322 318 318 323 323 324 325 328 329 328 331 333 332
308 307 306 307 304 307 309 308 309 309 311 314 317 323 323 323 322 323 322 324 324 322 321 324 327 325 320 320 327 323 328 323 321 319 318 321 323 324 323 325 327 328 330 332 333
308 307 306 306 304 302 308 309 309 309 309 314 315 321 323 323 327 322 322 322 325 322 323 325 326 323 323 323 321 324 327 324 319 317 318 318 321 323 323 323 325 327 325 330 332
307 307 306 305 304 303 304 310 309 308 309 311 314 317 323 323 322 319 322 321 324 322 323 325 327 324 325 324 325 326 327 321 322 318 316 317 318 321 322 323 323 326 329 324 332
307 306 305 306 306 304 304 308 307 309 310 309 312 313 321 324 323 321 320 322 323 323 324 325 327 328 326 325 326 327 327 323 321 318 315 315 317 318 320 321 325 327 329 325 328
306 306 305 306 306 305 305 305 306 308 310 310 310 311 315 320 322 321 319 319 323 322 324 324 326 328 326 325 326 325 325 320 319 322 315 314 317 315 319 320 326 329 329 326 324
306 306 305 305 304 305 305 306 305 307 311 310 311 313 312 319 320 321 320 321 322 322 322 324 326 328 326 323 322 324 322 326 322 318 316 314 324 322 320 318 329 329 328 326 323
306 306 305 304 302 303 305 306 308 306 309 310 313 311 312 317 319 320 320 319 322 321 321 323 325 326 324 322 323 321 324 325 323 317 313 315 323 321 322 319 320 328 328 328 327
305 305 305 300 301 302 304 306 307 310 308 310 313 313 312 316 321 321 319 318 320 319 322 323 324 323 323 323 329 325 328 323 325 319 314 313 314 315 319 317 319 321 326 328 329
305 303 299 300 302 304 306 308 312 311 310 313 314 313 314 315 321 320 320 319 320 320 322 322 324 327 326 323 326 323 326 327 321 318 315 315 314 315 317 315 316 318 319 324 328
303 298 302 304 305 308 308 311 311 311 313 310 313 313 312 316 320 318 319 320 320 321 319 321 325 323 323 323 326 325 328 326 321 317 317 318 317 316 317 316 316 317 318 318 325
298 302 307 307 308 309 309 309 311 311 311 313 313 311 315 313 320 319 319 320 320 320 322 321 322 323 324 324 326 330 329 328 323 318 319 319 322 319 319 320 322 322 321 321 319
298 303 306 307 306 306 307 308 309 309 310 311 312 312 312 315 319 319 320 320 320 321 320 322 321 324 325 326 326 330 328 330 320 324 327 320 328 321 322 321 321 322 322 321 320
301 304 306 306 306 306 306 307 308 311 313 312 314 312 312 317 319 320 320 320 320 321 321 321 323 324 327 326 326 329 320 320 320 315 319 317 320 318 317 322 322 322 323 324 320
304 305 306 306 305 306 305 307 307 309 314 315 314 316 314 318 319 321 320 319 319 320 319 318 321 323 324 320 323 314 317 318 316 319 326 318 321 320 319 319 321 320 322 324 324
306 305 306 307 305 304 304 305 307 311 308 309 312 317 316 319 320 321 319 319 320 322 323 320 322 318 321 318 316 318 324 324 325 326 327 316 318 323 318 317 317 318 319 323 323
305 303 303 304 303 305 303 303 307 310 308 307 312 318 320 318 319 321 319 320 316 317 321 322 326 321 319 319 318 320 325 325 326 323 320 310 320 318 316 319 319 317 319 317 316
304 303 302 304 303 303 302 305 306 310 309 311 315 319 316 318 318 320 318 319 317 316 319 321 320 315 319 315 318 318 323 316 311 301 313 313 313 312 313 313 312 311 313 314 315
301 301 301 301 301 302 301 305 306 306 305 310 318 317 315 313 318 320 318 318 315 316 315 316 317 316 316 316 316 319 316 320 316 314 316 315 314 315 312 313 311 310 311 313 313
299 301 301 302 301 301 301 303 305 306 305 308 316 317 314 314 316 319 318 317 315 315 313 312 313 313 316 318 318 317 320 317 315 314 315 316 315 310 313 310 310 310 312 313 313
301 299 301 302 300 299 301 303 305 306 306 307 310 316 315 316 316 318 318 317 315 315 315 312 311 316 317 309 313 315 320 317 322 318 314 314 314 310 309 307 310 309 310 310 310
300 300 302 301 300 300 301 304 305 305 304 307 310 316 315 316 317 316 317 315 315 315 313 310 311 315 314 311 310 316 316 316 313 313 314 316 315 308 307 307 309 309 310 310 310
300 300 300 301 300 299 300 302 304 306 306 307 307 315 315 316 315 317 316 314 315 315 312 310 311 314 319 319 314 315 315 315 314 312 313 316 315 309 308 308 307 309 310 310 310
302 298 301 301 301 301 300 303 305 306 307 307 308 314 316 317 316 316 315 315 315 314 310 310 310 311 311 311 313 315 315 315 316 315 317 316 315 312 308 306 308 310 310 310 311
300 301 300 301 300 301 301 301 304 305 306 309 309 314 314 316 316 317 316 316 316 310 312 309 309 308 306 311 312 315 315 316 316 317 315 313 313 312 313 310 308 310 311 312 311
300 301 302 301 301 300 301 302 303 305 307 308 311 314 315 315 314 315 316 314 315 315 314 310 308 308 306 308 310 309 314 315 316 315 315 315 315 309 310 309 309 310 311 311 311

GFSSW_850_thetae_126.txt.gz
Theta_e
308 308 310 312 312 310 309 310 312 316 318 320 322 324 325 324 323 323 324 324 325 325 324 321 319 323 328 329 329 321 323 326 327 325 324 323 323 325 326 327 328 329 331 332 332
307 308 309 309 309 310 310 309 309 310 315 319 320 323 324 324 323 323 324 322 324 324 324 322 321 326 329 329 331 328 325 325 324 317 317 320 322 325 326 328 329 329 332 331 332
308 305 305 307 309 311 311 309 308 308 310 316 316 318 323 324 323 324 323 323 323 324 324 323 323 327 323 327 327 324 329 324 326 318 318 317 322 323 325 325 326 326 330 331 332
309 309 308 305 305 306 309 310 309 308 309 314 314 319 321 323 328 323 323 322 322 324 324 326 326 323 320 320 327 329 328 327 325 318 316 317 318 322 323 324 324 325 323 329 331
309 308 308 307 305 305 304 305 308 308 309 312 313 314 321 323 322 320 322 323 322 324 323 325 324 324 324 322 321 324 327 328 329 328 318 315 317 319 321 322 322 326 326 327 329
308 308 308 307 306 305 303 302 305 309 310 310 313 313 313 321 322 319 321 322 322 324 323 325 325 324 325 324 325 326 327 327 329 328 322 314 316 316 319 321 322 325 327 326 328
306 307 307 307 306 305 304 303 304 308 309 310 310 314 312 315 322 321 321 321 321 323 324 323 324 325 326 324 326 325 327 320 323 326 322 317 322 314 318 321 322 327 328 326 325
306 306 307 306 305 305 304 303 304 307 308 309 310 312 312 313 320 323 322 320 321 323 323 322 326 327 326 323 323 325 322 326 321 320 322 324 330 322 318 322 324 328 329 328 325
306 306 306 306 305 306 305 304 305 306 308 310 311 312 312 313 315 320 322 321 323 322 322 323 325 326 323 319 321 322 325 326 325 318 314 318 328 325 322 317 326 327 329 328 326
306 306 306 306 305 305 304 305 305 307 307 310 310 312 311 313 314 317 321 320 321 320 321 322 323 321 324 322 324 322 326 323 326 320 312 312 315 316 319 319 318 324 328 328 326
307 306 306 306 304 304 302 304 307 309 309 309 311 311 312 313 315 316 320 321 320 320 322 322 325 325 324 323 321 321 323 323 321 319 318 318 319 316 317 315 314 318 327 327 326
306 306 306 305 305 301 301 306 307 309 310 309 310 311 311 313 316 318 320 320 320 322 320 322 325 322 321 322 323 320 323 324 322 319 320 319 320 317 315 316 315 316 319 323 325
305 306 305 304 301 300 302 305 308 309 310 310 309 311 313 313 315 318 319 320 320 320 320 321 320 319 323 324 324 325 324 324 326 317 318 319 320 318 317 317 318 318 316 317 319
305 306 304 299 303 306 307 306 308 309 309 308 311 310 312 312 312 317 319 320 320 320 319 319 318 320 323 324 323 326 324 324 321 321 324 319 327 320 320 320 318 318 319 317 318
305 305 301 304 306 305 306 308 309 308 303 308 312 311 312 313 313 313 319 319 321 320 318 319 318 321 323 323 323 325 325 327 321 321 318 320 326 320 317 321 321 320 320 320 321
305 301 307 306 306 307 307 308 308 308 305 310 312 312 312 312 315 316 316 320 320 319 318 317 318 320 321 320 322 314 317 319 318 321 326 322 324 322 318 319 318 320 321 322 322
301 303 307 305 306 305 306 306 307 308 305 311 313 312 313 313 314 315 319 321 321 321 321 319 321 319 321 321 318 319 324 325 327 325 329 318 320 326 318 316 315 317 320 322 323
300 304 306 305 305 306 306 304 301 300 305 308 310 313 312 313 313 316 320 321 319 319 320 320 323 322 321 321 321 323 326 326 331 327 326 312 319 320 316 320 319 318 320 320 321
305 306 305 305 305 304 304 305 306 299 307 308 311 313 313 313 313 313 319 321 319 318 321 319 321 319 320 315 318 322 326 318 310 301 313 314 313 312 312 311 312 313 313 315 317
305 304 304 304 303 304 299 301 300 305 305 306 311 314 315 314 315 313 320 318 319 317 314 316 319 320 318 317 316 320 318 321 318 318 317 315 313 317 314 313 311 310 311 313 314
303 301 303 304 302 301 295 295 300 304 305 305 307 311 315 313 316 316 317 317 318 316 312 314 316 315 316 320 320 320 322 319 316 315 317 316 315 310 314 311 312 310 314 313 313
299 300 301 301 300 290 296 299 303 306 305 305 306 306 307 311 316 317 312 319 317 316 316 311 314 318 321 310 311 316 323 321 327 319 313 314 314 311 309 308 309 311 312 312 313
300 301 301 301 297 298 296 302 304 305 306 306 305 306 308 312 316 318 315 315 317 315 314 310 314 318 315 313 313 319 318 321 314 312 314 315 315 307 305 306 308 309 310 311 311
300 300 300 301 299 293 293 297 300 304 304 304 305 306 306 307 315 317 317 314 316 316 312 311 312 316 319 320 318 320 319 320 319 321 318 317 315 309 306 305 305 308 310 309 309
300 298 301 300 300 299 296 298 301 302 304 305 306 306 307 311 313 318 317 314 316 315 310 311 311 312 312 314 316 318 319 320 321 320 320 319 314 309 306 305 306 310 309 309 310
299 299 299 289 300 300 300 294 299 299 304 307 307 308 308 309 311 313 317 316 317 312 313 310 308 308 307 313 316 318 316 318 316 317 316 316 315 311 308 308 306 308 309 309 310
301 300 301 300 299 299 299 296 301 303 303 305 306 308 309 310 310 314 316 315 315 315 316 312 307 312 306 309 312 313 315 316 318 317 317 317 316 310 310 306 307 307 309 310 310